Location: Gravenhurst
(44.9196°N, 79.3742°W)
Time: 17:44:37
(UTC-04:00)

Tiangong 2 - Visible Passes

Search period start: 18 March 2019 00:00
Search period end: 28 March 2019 00:00
Orbit: 379 x 390 km, 42.8° (Epoch: 18 March)

Date Brightness Start Highest point End Pass type
(mag) Time Alt. Az. Time Alt. Az. Time Alt. Az.
18 Mar 1.3 06:01:41 39° WSW 06:02:33 55° S 06:05:41 10° ESE visible
19 Mar 3.4 05:04:58 22° ESE 05:04:58 22° ESE 05:06:16 10° E visible
19 Mar 2.0 06:37:11 13° W 06:39:40 34° SSW 06:42:36 10° SE visible
20 Mar 1.6 05:40:31 44° S 05:40:31 44° S 05:43:21 10° ESE visible
21 Mar 4.3 04:43:56 11° ESE 04:43:56 11° ESE 04:44:00 10° ESE visible
21 Mar 2.5 06:16:09 19° WSW 06:17:20 24° SSW 06:19:58 10° SSE visible
22 Mar 3.2 05:19:39 20° SE 05:19:39 20° SE 05:20:54 10° SE visible
23 Mar 3.1 05:55:32 15° SSW 05:55:32 15° SSW 05:56:57 10° SSE visible
